Regional Weather Roundup
Issued by NWS

Home | Current Version | Previous Version | Text Only | Print | Product List | Glossary On
Versions: 1 2 3 4 5 6 7 8 9 10 11 12 13 14 15 16 17 18 19 20 21 22 23 24 25 26 27 28 29 30 31 32 33 34 35 36 37 38 39 40 41 42 43 44 45 46 47 48 49 50
000
ASUS43 KLMK 010510
RWRKY
KENTUCKY REGIONAL WEATHER ROUNDUP
NATIONAL WEATHER SERVICE LOUISVILLE KY
100 AM EDT WED JUL 01 2015

NOTE "FAIR" INDICATES FEW OR NO CLOUDS BELOW 12,000 FEET
WITH NO SIGNIFICANT WEATHER AND/OR OBSTRUCTIONS TO VISIBILITY.

KYZ001>023-026-027-061>063-070>075-010600-
WESTERN AND SOUTH CENTRAL KENTUCKY

CITY           SKY/WX    TMP DP  RH WIND       PRES   REMARKS
PADUCAH        NOT AVBL
HENDERSON      NOT AVBL
OWENSBORO      PTCLDY    71  68  90 SW6       29.91S
HOPKINSVILLE   PTCLDY    72  69  91 SW7       29.93F
BOWLING GREEN  NOT AVBL
GLASGOW        PTCLDY    69  69  99 CALM      29.94S
$$

KYZ024-025-028>034-038-045-046-053-010600-
NORTH CENTRAL KENTUCKY

CITY           SKY/WX    TMP DP  RH WIND       PRES   REMARKS
LOUISVILLE/SDF MOCLDY    71  63  75 SE7       29.90S
LOUISVILLE/LOU NOT AVBL
FORT KNOX      CLEAR     69  65  90 S3        29.90R
$$

KYZ035>037-039>044-047>052-055>060-089>105-010600-
NORTHEAST KENTUCKY

CITY           SKY/WX    TMP DP  RH WIND       PRES   REMARKS
LEXINGTON      NOT AVBL
COVINGTON      PTCLDY    64  62  93 SW5       29.89F FOG
FRANKFORT      NOT AVBL
$$

KYZ054-064>069-076>088-106>120-010600-
SOUTHEAST KENTUCKY

CITY           SKY/WX    TMP DP  RH WIND       PRES   REMARKS
JACKSON        NOT AVBL
LONDON         NOT AVBL
SOMERSET       MOCLDY    66  66 100 CALM      29.96F FOG
MIDDLESBORO    CLOUDY    66  66 100 CALM      30.00R FOG
MONTICELLO     CLEAR     66  66 100 CALM      29.99S FOG
$$



USA.gov is the U.S. government's official web portal to all federal, state and local government web resources and services.